Weather in Bitki

Russia / Novosibirsk Oblast     54˚12′08″N   82˚16′09″E
temp.,
°C
wind,
m/s
gust,
m/s
humid.,
%
clouds,
%
prec.,
mm/h
press.,
hPa
HPBL,
m
16 january, sat
sat1601:00−23˚s3696100 0.0 1046139
04:00−23˚s5996100 0.0 1044199
07:00−22˚s5893100 0.0 1041245
10:00−20˚s5988100 0.0 1038248
13:00−17˚s61282100 0.0 1034340
16:00−15˚s6118299 0.0 1031350
19:00−14˚s6138299 0.0 1027308
22:00−13˚s71379100 0.0 1023324
17 january, sun
sun1701:00−13˚s61477100 0.0 1020310
04:00−14˚s71476100 0.0 1016333
07:00−12˚s81874100 0.0 1013477
10:00−9˚ssw81779100 0.0 1011584
13:00−8˚sw9168698 0.0 1011724
16:00−8˚sw7149099 0.1 1012655
19:00−10˚sw7149299 0.2 1015446
22:00−10˚ssw71493100 0.1 1016359
18 january, mon
mon1801:00−10˚ssw91790100 0.1 1014453
04:00−9˚sw91983100 0.0 1012570
07:00−9˚sw81686100 0.3 1011895
10:00−10˚wsw51392100 0.1 1013696
13:00−11˚wsw51090100 0.2 1016718
16:00−11˚wsw51090100 0.0 1017607
19:00−16˚wsw489692 0.0 1019167
22:00−18˚wsw479774 0.0 1020119
19 january, tue
tue1901:00−21˚wsw339941 0.0 102134
04:00−22˚sw22991 0.0 102220
07:00−21˚s239518 0.0 102129
10:00−22˚ssw339653 0.0 102136
13:00−17˚ssw249428 0.0 1020171
16:00−16˚sw239553 0.0 1019116
19:00−18˚wsw229676 0.0 102020
22:00−17˚sw2294100 0.0 102041
20 january, wed
wed2001:00−18˚nw0193100 0.0 102020
04:00−18˚ene2293100 0.0 101920
07:00−18˚e3393100 0.0 101752
10:00−17˚e359698 0.0 1016102
13:00−13˚e249599 0.0 1014161
16:00−9˚ssw2695100 0.9 1012288
19:00−9˚wsw41394100 1.6 1013490
22:00−10˚wsw71591100 0.1 1014714